Moses Lake, Washington, United States (98837)
Lat: 47.13N, Lon: 119.28W
Wx Zone: WAZ034
Local Info
Past Weather Observations for Thursday, July 24, 2014

NOTE: This archive is for the closest National Weather Service station to Moses Lake. Information may differ from the station used for current weather conditions.

Click here for Long-term Archive

Time Weather Temperature Dewpoint Humidity Pressure Winds Precip Visibility
23:52
Clear
57°F / 14°C 48°F / 9°C 72% 30.09 in
(1019 mb)
E 4.6 mph
(E 7 kph)
- 10SM
22:52
Clear
61°F / 16°C 48°F / 9°C 63% 30.09 in
(1019 mb)
SSW 4.6 mph
(SSW 7 kph)
- 10SM
21:52
Clear
63°F / 17°C 50°F / 10°C 64% 30.09 in
(1019 mb)
SW 9.2 mph
(SW 15 kph)
- 10SM
20:52
Clear
66°F / 19°C 46°F / 8°C 49% 30.06 in
(1018 mb)
NNW 4.6 mph
(NNW 7 kph)
- 10SM
19:52
Clear
68°F / 20°C 48°F / 9°C 49% 30.06 in
(1018 mb)
W 10.4 mph
(W 17 kph)
- 10SM
18:52
Clear
73°F / 23°C 48°F / 9°C 41% 30.06 in
(1018 mb)
SSW 11.5 mph
(SSW 19 kph)
- 10SM
17:52
Partly Cloudy
77°F / 25°C 43°F / 6°C 30% 30.06 in
(1018 mb)
SSW 15 mph
(SSW 24 kph)
- 10SM
16:52
Mostly Cloudy
79°F / 26°C 45°F / 7°C 30% 30.06 in
(1018 mb)
SSW 11.5 mph
(SSW 19 kph)
- 10SM
15:52
Clear
77°F / 25°C 45°F / 7°C 32% 30.06 in
(1018 mb)
SSW 8.1 mph
(SSW 13 kph)
- 10SM
14:52
Mostly Cloudy
79°F / 26°C 43°F / 6°C 28% 30.06 in
(1018 mb)
SW 16.1 mph
(SW 26 kph)
- 10SM
13:52
Partly Cloudy
79°F / 26°C 45°F / 7°C 30% 30.09 in
(1019 mb)
SW 13.8 mph
(SW 22 kph)
- 10SM
12:52
Overcast
73°F / 23°C 43°F / 6°C 33% 30.09 in
(1019 mb)
SW 15 mph
(SW 24 kph)
- 10SM
11:52
Partly Cloudy
75°F / 24°C 43°F / 6°C 31% 30.09 in
(1019 mb)
SW 17.3 mph
(SW 28 kph)
- 10SM
10:52
Mostly Cloudy
73°F / 23°C 43°F / 6°C 33% 30.09 in
(1019 mb)
SW 15 mph
(SW 24 kph)
- 10SM
09:52
Partly Cloudy
70°F / 21°C 43°F / 6°C 38% 30.12 in
(1020 mb)
SSE 17.3 mph
(SSE 28 kph)
- 10SM
08:52
Partly Cloudy
66°F / 19°C 43°F / 6°C 43% 30.12 in
(1020 mb)
SW 17.3 mph
(SW 28 kph)
- 10SM
07:52
Clear
64°F / 18°C 45°F / 7°C 49% 30.09 in
(1019 mb)
SSE 15 mph
(SSE 24 kph)
- 10SM
06:52
Clear
61°F / 16°C 45°F / 7°C 55% 30.09 in
(1019 mb)
S 15 mph
(S 24 kph)
- 10SM
05:52
Clear
57°F / 14°C 45°F / 7°C 63% 30.09 in
(1019 mb)
SSE 10.4 mph
(SSE 17 kph)
- 10SM
04:52
Clear
54°F / 12°C 45°F / 7°C 72% 30.09 in
(1019 mb)
SE 4.6 mph
(SE 7 kph)
- 10SM
03:52
Clear
52°F / 11°C 45°F / 7°C 77% 30.06 in
(1018 mb)
SSE 6.9 mph
(SSE 11 kph)
- 10SM
02:52
Clear
55°F / 13°C 45°F / 7°C 67% 30.06 in
(1018 mb)
S 6.9 mph
(S 11 kph)
- 10SM
01:52
Clear
55°F / 13°C 45°F / 7°C 67% 30.06 in
(1018 mb)
SW 9.2 mph
(SW 15 kph)
- 10SM
00:52
Clear
57°F / 14°C 43°F / 6°C 59% 30.04 in
(1017 mb)
SW 10.4 mph
(SW 17 kph)
- 10SM
Time Weather Temperature Dewpoint Humidity Pressure Winds Precip Visibility


Weather for websites

WeatherForYou.com, LLC is not responsible for any damages or problems caused by this service. Current weather conditions are obtained from the closest station including government and personal stations which may have varying degrees of accuracy. Weather forecasts are derived from the NOAA NDFD. Like all things, this site belongs to Jesus Christ... He just trusts me to maintain it. If you have any questions or comments email webmaster@weatherforyou.com

Copyright © 2014, WeatherForYou.com LLC. All rights reserved.